STARLINK-35459

Last updated on Mon Oct 20 2025 00:02:07 GMT+0000 (Coordinated Universal Time)

1 65856U 25223C 25292.25002315 -.01909384 00000+0 -21823-1 0 9994 2 65856 53.1596 235.0065 0001130 86.8663 8.4769 15.64691380 3734
UTC large
Height (km)
Speed (km/s)
/
Latitude / Longitude
Inclination (degrees)
Orbital Period (minutes)
Azimuth
Elevation
Range (km)
Doppler Factor

Next 0 passes for location: London (51.5072 / 0.1276)

Sorry there are no passes over London.